Regional Weather Roundup
Issued by NWS

Home | Current Version | Previous Version | Graphics & Text | Print | Product List | Glossary On
Versions: 1 2 3 4 5 6 7 8 9 10 11 12 13 14 15 16 17 18 19 20 21 22 23 24 25 26 27 28 29 30 31 32 33 34 35 36 37 38 39 40 41 42 43 44 45 46 47 48 49 50
804
ASUS43 KTOP 120759
RWRKS

WEATHER ROUNDUP FOR KANSAS
NATIONAL WEATHER SERVICE GOODLAND KS
200 AM CST FRI FEB 12 2016

NOTE:  "FAIR" INDICATES FEW OR NO CLOUDS BELOW 12,000 FEET WITH NO
SIGNIFICANT WEATHER AND/OR OBSTRUCTIONS TO VISIBILITY.

KSZ001>006-013>018-027>032-041>047-120900-
NORTHWEST KANSAS

CITY           SKY/WX    TMP DP  RH WIND       PRES   REMARKS
GOODLAND       CLEAR     31  26  82 NW5       30.24S
RUSSELL        CLOUDY    31  28  89 N7        30.20R
$$

KSZ061>065-074>080-084>089-120900-
SOUTHWEST KANSAS

CITY           SKY/WX    TMP DP  RH WIND       PRES   REMARKS
DODGE CITY     CLOUDY    33  26  75 W7        30.22R
ELKHART          N/A     37  22  54 W6          N/A
GARDEN CITY    CLOUDY    33  27  78 NW9       30.22S
GREAT BEND     CLOUDY    27  19  74 NW3       30.20R
LIBERAL        CLOUDY    37  21  52 NW3       30.23S
$$

KSZ066>073-081>083-090>101-120900-
SOUTHEAST KANSAS

CITY           SKY/WX    TMP DP  RH WIND       PRES   REMARKS
CHANUTE        CLEAR     27  22  81 W3        30.17R
COFFEYVILLE    CLEAR     28  23  81 CALM      30.18F
HUTCHINSON     CLOUDY    29  24  82 NW5       30.19R
MEDICINE LODGE   N/A     27  25  92 N6        30.19R
NEWTON         CLEAR     34  23  64 W7        30.20R
PARSONS        PTCLDY    25  22  88 CALM      30.18R
WICHITA INTL   PTCLDY    32  25  75 W3        30.18S
WICHITA JABRA  CLEAR     35  26  69 W8        30.18R
WINFIELD       CLEAR     25  20  81 CALM      30.20R
$$

KSZ007>012-019>026-033>040-048>060-102>105-120900-
NORTHEAST KANSAS

CITY           SKY/WX    TMP DP  RH WIND       PRES   REMARKS
CONCORDIA      CLEAR     29  26  89 NW8       30.21R
EMPORIA        CLEAR     25  21  85 NW6       30.17R
LAWRENCE       CLOUDY    27  23  85 NW6       30.20R
MANHATTAN      CLEAR     28  24  85 CALM      30.20R
OLATHE IND     CLOUDY    29  24  82 N5        30.19R
OLATHE EXE     CLOUDY    30  21  69 N5        30.18R
SALINA         CLEAR     29  23  78 NW7       30.21R
TOPEKA BILLARD PTCLDY    27  21  78 CALM      30.20R
TOPEKA FORBES  CLEAR     27  21  78 CALM      30.18S
$$




USA.gov is the U.S. government's official web portal to all federal, state and local government web resources and services.